• en France
  • Liste des pays
  • À 7 jours
  • Température de l'eau
  • Carte satellitaire
  • Carte météo
  • Widgets météo
  • user-avatar
    Se connecter

    Météo par heure à Villavicencio

    Ce jour, 14 Décembre, Jeudi

    Heure Température Précipitation Vent Pression Humidité
    00:00 +24°C° 1,2 mm 1 m/s 717 mmHg 94%
    01:00 +24°C° 0 mm 1 m/s 717 mmHg 95%
    02:00 +24°C° 1,3 mm 1 m/s 717 mmHg 95%
    03:00 +24°C° 1,3 mm 1 m/s 717 mmHg 95%
    04:00 +24°C° 1,3 mm 1 m/s 717 mmHg 95%
    05:00 +24°C° 0,2 mm 1 m/s 717 mmHg 95%
    06:00 +24°C° 0,2 mm 1 m/s 718 mmHg 94%
    07:00 +25°C° 0 mm 1 m/s 718 mmHg 93%
    08:00 +26°C° 0 mm 1 m/s 718 mmHg 85%
    09:00 +28°C° 0 mm 1 m/s 718 mmHg 77%
    10:00 +29°C° 0 mm 2 m/s 719 mmHg 69%
    11:00 +30°C° 0 mm 2 m/s 718 mmHg 63%
    12:00 +31°C° 0 mm 2 m/s 717 mmHg 58%
    13:00 +32°C° 0 mm 2 m/s 717 mmHg 52%
    14:00 +32°C° 0 mm 2 m/s 716 mmHg 54%
    15:00 +31°C° 0 mm 1 m/s 716 mmHg 55%
    16:00 +31°C° 0 mm 1 m/s 715 mmHg 57%
    17:00 +29°C° 0 mm 1 m/s 715 mmHg 64%
    18:00 +27°C° 0 mm 1 m/s 716 mmHg 71%
    19:00 +24°C° 0 mm 1 m/s 716 mmHg 78%
    20:00 +24°C° 0 mm 1 m/s 717 mmHg 74%
    21:00 +24°C° 0 mm 1 m/s 717 mmHg 69%
    22:00 +23°C° 0 mm 1 m/s 718 mmHg 64%
    23:00 +23°C° 0 mm 1 m/s 718 mmHg 65%

    Demain, 15 Décembre, Vendredi

    Heure Température Précipitation Vent Pression Humidité
    00:00 +23°C° 0 mm 1 m/s 718 mmHg 67%
    01:00 +23°C° 0 mm 1 m/s 718 mmHg 68%
    02:00 +23°C° 0,1 mm 1 m/s 717 mmHg 72%
    03:00 +23°C° 0,1 mm 1 m/s 717 mmHg 75%
    04:00 +23°C° 0,1 mm 1 m/s 717 mmHg 79%
    05:00 +23°C° 0 mm 1 m/s 718 mmHg 79%
    06:00 +24°C° 0 mm 1 m/s 718 mmHg 79%
    07:00 +25°C° 0 mm 1 m/s 718 mmHg 79%
    08:00 +26°C° 0 mm 1 m/s 718 mmHg 72%
    09:00 +28°C° 0 mm 1 m/s 719 mmHg 65%
    10:00 +30°C° 0 mm 2 m/s 719 mmHg 59%
    11:00 +31°C° 0 mm 2 m/s 718 mmHg 58%
    12:00 +31°C° 0 mm 2 m/s 717 mmHg 57%
    13:00 +32°C° 0 mm 2 m/s 716 mmHg 57%
    14:00 +32°C° 0 mm 2 m/s 716 mmHg 60%
    15:00 +31°C° 0 mm 2 m/s 715 mmHg 63%
    16:00 +31°C° 0 mm 2 m/s 714 mmHg 66%
    17:00 +29°C° 0 mm 1 m/s 715 mmHg 72%
    18:00 +27°C° 0 mm 1 m/s 715 mmHg 78%
    19:00 +26°C° 0 mm 1 m/s 715 mmHg 84%
    20:00 +26°C° 0,1 mm 1 m/s 716 mmHg 83%
    21:00 +25°C° 0,1 mm 1 m/s 717 mmHg 81%
    22:00 +25°C° 0,1 mm 1 m/s 717 mmHg 79%
    23:00 +25°C° 0,1 mm 1 m/s 717 mmHg 80%

    Après-demain, 16 Décembre, Samedi

    Heure Température Précipitation Vent Pression Humidité
    00:00 +25°C° 0,1 mm 1 m/s 717 mmHg 81%
    01:00 +24°C° 0,1 mm 1 m/s 717 mmHg 82%
    02:00 +24°C° 0 mm 1 m/s 717 mmHg 83%
    03:00 +24°C° 0 mm 1 m/s 716 mmHg 84%
    04:00 +24°C° 0 mm 1 m/s 716 mmHg 85%
    05:00 +24°C° 0 mm 1 m/s 717 mmHg 84%
    06:00 +25°C° 0 mm 1 m/s 717 mmHg 83%
    07:00 +25°C° 0 mm 1 m/s 717 mmHg 82%
    08:00 +27°C° 0 mm 1 m/s 718 mmHg 75%
    09:00 +29°C° 0 mm 1 m/s 718 mmHg 68%
    10:00 +31°C° 0 mm 2 m/s 719 mmHg 60%
    11:00 +31°C° 0 mm 2 m/s 718 mmHg 61%
    12:00 +31°C° 0 mm 2 m/s 717 mmHg 61%
    13:00 +31°C° 0 mm 2 m/s 716 mmHg 62%
    14:00 +31°C° 0 mm 2 m/s 716 mmHg 64%
    15:00 +31°C° 0 mm 2 m/s 715 mmHg 67%
    16:00 +30°C° 0 mm 1 m/s 714 mmHg 69%
    17:00 +29°C° 0 mm 1 m/s 714 mmHg 74%
    18:00 +27°C° 0 mm 1 m/s 715 mmHg 80%
    19:00 +26°C° 0 mm 1 m/s 715 mmHg 85%
    20:00 +26°C° 0 mm 1 m/s 716 mmHg 85%
    21:00 +25°C° 0 mm 1 m/s 716 mmHg 85%
    22:00 +25°C° 0 mm 1 m/s 717 mmHg 85%
    23:00 +25°C° 0 mm 1 m/s 717 mmHg 85%

    17 Décembre, Dimanche

    Heure Température Précipitation Vent Pression Humidité
    00:00 +24°C° 0 mm 1 m/s 716 mmHg 85%
    01:00 +24°C° 0 mm 1 m/s 716 mmHg 86%
    02:00 +24°C° 0 mm 1 m/s 716 mmHg 86%
    03:00 +23°C° 0 mm 1 m/s 716 mmHg 86%
    04:00 +23°C° 0 mm 1 m/s 716 mmHg 86%
    05:00 +23°C° 0 mm 1 m/s 716 mmHg 85%
    06:00 +24°C° 0 mm 1 m/s 717 mmHg 83%
    07:00 +24°C° 0 mm 1 m/s 717 mmHg 82%
    08:00 +26°C° 0 mm 1 m/s 718 mmHg 72%
    09:00 +29°C° 0 mm 2 m/s 718 mmHg 61%
    10:00 +31°C° 0 mm 2 m/s 719 mmHg 51%
    11:00 +31°C° 0 mm 2 m/s 718 mmHg 50%
    12:00 +32°C° 0 mm 2 m/s 717 mmHg 49%
    13:00 +33°C° 0 mm 3 m/s 717 mmHg 47%
    14:00 +32°C° 0 mm 2 m/s 716 mmHg 50%
    15:00 +31°C° 0 mm 2 m/s 715 mmHg 53%
    16:00 +31°C° 0 mm 1 m/s 714 mmHg 55%
    17:00 +29°C° 0 mm 1 m/s 715 mmHg 62%
    18:00 +26°C° 0 mm 1 m/s 715 mmHg 68%
    19:00 +24°C° 0 mm 1 m/s 715 mmHg 74%
    20:00 +24°C° 0 mm 1 m/s 716 mmHg 70%
    21:00 +23°C° 0 mm 1 m/s 716 mmHg 66%
    22:00 +23°C° 0 mm 1 m/s 717 mmHg 61%
    23:00 +23°C° 0 mm 1 m/s 717 mmHg 61%

    18 Décembre, Lundi

    Heure Température Précipitation Vent Pression Humidité
    00:00 +23°C° 0 mm 1 m/s 717 mmHg 61%
    01:00 +22°C° 0 mm 1 m/s 716 mmHg 61%
    02:00 +22°C° 0 mm 1 m/s 716 mmHg 61%
    03:00 +22°C° 0 mm 1 m/s 716 mmHg 62%
    04:00 +22°C° 0 mm 1 m/s 716 mmHg 62%
    05:00 +22°C° 0 mm 1 m/s 717 mmHg 63%
    06:00 +23°C° 0 mm 1 m/s 717 mmHg 64%
    07:00 +23°C° 0 mm 1 m/s 718 mmHg 65%
    08:00 +26°C° 0 mm 1 m/s 718 mmHg 57%
    09:00 +29°C° 0 mm 2 m/s 718 mmHg 49%
    10:00 +31°C° 0 mm 2 m/s 719 mmHg 41%
    11:00 +32°C° 0 mm 2 m/s 718 mmHg 40%
    12:00 +32°C° 0 mm 2 m/s 717 mmHg 40%
    13:00 +34°C° 0 mm 3 m/s 716 mmHg 40%
    14:00 +32°C° 0 mm 2 m/s 715 mmHg 43%
    15:00 +32°C° 0 mm 2 m/s 715 mmHg 47%
    16:00 +31°C° 0 mm 2 m/s 714 mmHg 50%
    17:00 +29°C° 0 mm 1 m/s 715 mmHg 57%
    18:00 +27°C° 0 mm 1 m/s 715 mmHg 64%
    19:00 +24°C° 0 mm 1 m/s 716 mmHg 71%
    20:00 +24°C° 0 mm 1 m/s 716 mmHg 67%
    21:00 +24°C° 0 mm 1 m/s 717 mmHg 64%
    22:00 +23°C° 0 mm 1 m/s 718 mmHg 60%
    23:00 +23°C° 0 mm 1 m/s 718 mmHg 62%

    19 Décembre, Mardi

    Heure Température Précipitation Vent Pression Humidité
    00:00 +23°C° 0 mm 1 m/s 717 mmHg 64%
    01:00 +23°C° 0 mm 1 m/s 717 mmHg 66%
    02:00 +23°C° 0 mm 1 m/s 717 mmHg 67%
    03:00 +22°C° 0 mm 1 m/s 716 mmHg 69%
    04:00 +22°C° 0 mm 1 m/s 716 mmHg 70%
    05:00 +22°C° 0 mm 1 m/s 717 mmHg 69%
    06:00 +23°C° 0 mm 1 m/s 717 mmHg 67%
    07:00 +23°C° 0 mm 1 m/s 718 mmHg 66%
    08:00 +26°C° 0 mm 1 m/s 718 mmHg 58%
    09:00 +29°C° 0 mm 2 m/s 718 mmHg 51%
    10:00 +31°C° 0 mm 2 m/s 718 mmHg 43%
    11:00 +32°C° 0 mm 2 m/s 718 mmHg 44%
    12:00 +32°C° 0 mm 2 m/s 717 mmHg 45%
    13:00 +34°C° 0 mm 3 m/s 716 mmHg 46%
    14:00 +32°C° 0 mm 2 m/s 715 mmHg 50%
    15:00 +32°C° 0 mm 2 m/s 715 mmHg 54%
    16:00 +31°C° 0 mm 2 m/s 714 mmHg 58%
    17:00 +29°C° 0 mm 1 m/s 715 mmHg 65%
    18:00 +27°C° 0 mm 1 m/s 715 mmHg 73%
    19:00 +25°C° 0 mm 1 m/s 716 mmHg 80%
    20:00 +25°C° 0 mm 1 m/s 716 mmHg 79%
    21:00 +25°C° 0 mm 1 m/s 717 mmHg 79%
    22:00 +24°C° 0 mm 1 m/s 717 mmHg 78%
    23:00 +24°C° 0 mm 1 m/s 717 mmHg 77%
    Voir plus